Flag for Australia Weather past 2 weeks in Alice Springs, Northern Territory, Australia

Now
66 °F

Sunny.


Feels Like: 66 °F
Forecast: 54 / 66 °F
Wind: 14 mph from Southeast

Location: Alice Springs Aerodrome

Current Time: Apr 19, 2015 at 3:20:51 PM

Latest Report: Apr 19, 2015 at 2:30 PM


Visibility: 10 mi

Pressure: 30.24 "Hg

Humidity: 40%

Dew point: 41 °F

Location of Alice SpringsLocation

Historic Weather in Alice Springs — Graph

°F

Alice Springs temperature yesterday

Maximum temperature yesterday: 66 °F (at 4:30 PM)
Minimum temperature yesterday: 59 °F (at 11:00 PM)
Average temperature yesterday: 63 °F

Past Weeks' High & Low Weather Summary

 TemperatureHumidityPressure
High100 °F (Apr 15, 4:00 PM)100% (Apr 19, 1:30 AM)30.33 "Hg (Apr 19, 1:30 AM)
Low41 °F (Apr 8, 5:00 AM)6% (Apr 15, 2:30 PM)29.86 "Hg (Apr 5, 2:30 PM)
Average70 °F36%30.08 "Hg
* Reported Apr 4 1:30 PM — Apr 19 2:00 PM, Alice Springs, Weather by CustomWeather, © 2015

Note: Actual official high and low records may vary slightly from our data, if they occured in-between our weather recording intervals... More about our weather records

Advertising

Alice Springs weather history for previous 24 hours

 ConditionsComfort  
Time TempWeatherWind HumidityBarometerVisibility
2:00 PM
Sun, Apr 19
66 °FSunny.16 mph43%30.27 "Hg10 mi
1:30 PM66 °FSunny.17 mph43%30.27 "Hg10 mi
1:00 PM66 °FSunny.18 mph43%30.27 "Hg10 mi
12:30 PM66 °FSunny.17 mph43%30.30 "HgN/A
12:00 PM66 °FBroken clouds.17 mph43%30.30 "HgN/A
11:30 AM64 °FBroken clouds.18 mph46%30.33 "HgN/A
11:00 AM66 °FBroken clouds.18 mph46%30.33 "HgN/A
10:30 AM64 °FBroken clouds.20 mph49%30.33 "HgN/A
10:00 AM64 °FBroken clouds.20 mph52%30.33 "HgN/A
9:30 AM63 °FBroken clouds.20 mph56%30.33 "HgN/A
8:30 AM59 °FBroken clouds.10 mph77%30.30 "HgN/A
8:00 AM59 °FBroken clouds.8 mph77%30.30 "HgN/A
7:30 AM55 °FBroken clouds.7 mph94%30.27 "HgN/A
7:00 AM54 °FSunny.8 mph94%30.24 "Hg10 mi
6:30 AM54 °FSunny.7 mph94%30.24 "Hg10 mi
5:30 AM55 °FClear.6 mph94%30.21 "HgN/A
4:30 AM55 °FClear.6 mph94%30.21 "HgN/A
4:00 AM55 °FClear.7 mph94%30.21 "HgN/A
3:30 AM57 °FClear.7 mph94%30.18 "HgN/A
3:00 AM57 °FClear.6 mph94%30.21 "HgN/A
2:30 AM57 °FClear.6 mph94%30.21 "HgN/A
2:00 AM57 °FClear.6 mph94%30.21 "HgN/A
1:30 AM57 °FClear.6 mph100%30.21 "HgN/A
1:00 AM59 °FClear.6 mph94%30.24 "HgN/A
12:30 AM59 °FClear.3 mph94%30.24 "HgN/A
12:00 AM59 °FClear.5 mph94%30.24 "HgN/A
11:30 PM
Sat, Apr 18
59 °FClear.No wind94%30.24 "HgN/A
11:00 PM59 °FClear.3 mph94%30.24 "HgN/A
10:30 PM61 °FClear.No wind94%30.24 "HgN/A
10:00 PM61 °FClear.No wind94%30.24 "HgN/A
9:30 PM61 °FClear.No wind88%30.21 "HgN/A
9:00 PM61 °FClear.No wind88%30.24 "HgN/A
8:30 PM63 °FClear.5 mph77%30.21 "HgN/A
7:30 PM63 °FClear.6 mph77%30.18 "HgN/A
6:30 PM64 °FClear.6 mph73%30.15 "HgN/A
6:00 PM64 °FClear.8 mph68%30.15 "HgN/A
5:30 PM64 °FSunny.9 mph68%30.15 "HgN/A
5:00 PM64 °FSunny.10 mph68%30.15 "HgN/A
4:30 PM66 °FBroken clouds.8 mph64%30.12 "HgN/A
4:00 PM64 °FBroken clouds.8 mph68%30.12 "HgN/A
3:30 PM64 °FBroken clouds.8 mph68%30.15 "HgN/A
3:00 PM64 °FBroken clouds.8 mph68%30.15 "HgN/A
Weather by CustomWeather, © 2015

See weather overviewHow to use our weather pages